Regional Weather Roundup
Issued by NWS

Home | Current Version | Previous Version | Text Only | Print | Product List | Glossary On
Versions: 1 2 3 4 5 6 7 8 9 10 11 12 13 14 15 16 17 18 19 20 21 22 23 24 25 26 27 28 29 30 31 32 33 34 35 36 37 38 39 40 41 42 43 44 45 46 47 48 49 50
580
ASUS43 KLSX 250710
RWRMO

WEATHER SUMMARY FOR MISSOURI
NATIONAL WEATHER SERVICE SPRINGFIELD MO
200 AM CDT SUN SEP 25 2016

NOTE: "FAIR" INDICATES FEW OR NO CLOUDS BELOW 12,000 FEET WITH NO
       SIGNIFICANT WEATHER AND/OR OBSTRUCTIONS TO VISIBILITY.
       CURRENT SKY AND/OR WEATHER CONDITIONS ARE NOT AVAILABLE FOR
       CHILLICOTHE AND FARMINGTON.

MOZ001>031-035>038-043-044-053-054-250800-
...NORTHERN AND WESTERN MISSOURI...

CITY           SKY/WX    TMP DP  RH WIND       PRES   REMARKS
KANSAS CTY INT RAIN      68  66  93 SW5       30.03R
KANSAS C DTWN  CLOUDY    71  69  93 S8        30.02R
LEE`S SUMMIT   CLOUDY    70  67  90 SW5       30.04R
ST JOSEPH      LGT RAIN  69  67  93 S7        30.01R
CHILLICOTHE      N/A     73  68  84 NW8       30.04R
KIRKSVILLE     PTCLDY    71  67  87 S7        30.02F

$$
MOZ066>068-077>081-088>096-101>105-250800-
...SOUTHWEST MISSOURI...

CITY           SKY/WX    TMP DP  RH WIND       PRES   REMARKS
SPRINGFIELD    CLOUDY    72  66  81 S8        30.05S
JOPLIN         PTCLDY    70  65  84 CALM        N/A
BRANSON        CLEAR     72  66  83 S3        30.08S

$$
MOZ032>034-039>042-045>050-055>058-069>072-250800-
...CENTRAL MISSOURI...

CITY           SKY/WX    TMP DP  RH WIND       PRES   REMARKS
COLUMBIA       CLOUDY    73  69  87 SE7       30.04S
JEFFERSON CITY CLOUDY    73  69  87 E5        30.03R
ROLLA          CLEAR     71  67  87 S8        30.06S
SEDALIA        CLOUDY    75  68  78 S5        30.03S
WHITEMAN AFB   MOCLDY    75  74  95 W9        30.02R
OSAGE BEACH    PTCLDY    71  68  90 S6        30.05S

$$
MOZ051-052-059>065-250800-
...EAST CENTRAL MISSOURI...

CITY           SKY/WX    TMP DP  RH WIND       PRES   REMARKS
ST LOUIS INTL  CLEAR     74  67  78 SE6       30.06F
SPIRIT OF STL  PTCLDY    67  67 100 CALM      30.05R FOG
ST CHARLES     CLEAR     70  69  97 NE3       30.05S

$$
MOZ072>076-082>087-097>100-106>115-250800-
...SOUTH CENTRAL AND SOUTHEAST MISSOURI...

CITY           SKY/WX    TMP DP  RH WIND       PRES   REMARKS
CAPE GIRARDEAU CLEAR     69  67  93 SE3       30.05F FOG
FARMINGTON     CLEAR     67  66  97 CALM      30.08S FOG
WEST PLAINS    CLEAR     68  65  90 CALM      30.09S

$$




USA.gov is the U.S. government's official web portal to all federal, state and local government web resources and services.